Temp
-8 -8 -8 -9 -9 -9 -9 -10 -10 -11 -11 -11 -11 -11 -11 -11 -11 -11 -11 -12 -14 -15 -16 -17 -17 -17 -17 -17 -17 -17 -17 -17 -17 -18 -18 -18 -18 -19 -19 -19 -19 -20 -20 -22
-8 -8 -8 -9 -9 -9 -9 -10 -10 -11 -11 -11 -11 -11 -11 -11 -11 -11 -11 -12 -15 -15 -16 -17 -17 -17 -17 -17 -17 -18 -17 -17 -18 -18 -18 -18 -18 -19 -19 -19 -20 -20 -21 -22
-8 -8 -8 -9 -9 -9 -9 -10 -10 -11 -11 -11 -11 -11 -11 -11 -11 -11 -12 -13 -15 -16 -17 -17 -17 -17 -17 -17 -18 -18 -18 -18 -18 -18 -18 -18 -19 -19 -19 -20 -20 -20 -21 -22
-8 -8 -8 -9 -9 -9 -9 -10 -10 -11 -11 -11 -11 -11 -11 -11 -11 -11 -12 -13 -15 -16 -17 -17 -17 -17 -17 -17 -18 -18 -18 -18 -18 -18 -18 -18 -19 -19 -19 -20 -20 -20 -21 -22
-8 -8 -8 -9 -9 -9 -9 -10 -10 -11 -11 -11 -11 -10 -10 -11 -11 -11 -12 -13 -14 -16 -17 -17 -17 -17 -17 -18 -18 -18 -18 -18 -18 -18 -18 -19 -19 -19 -20 -20 -20 -21 -21 -22
-8 -8 -8 -9 -9 -9 -9 -9 -10 -11 -11 -11 -11 -10 -11 -11 -11 -11 -12 -13 -14 -16 -17 -17 -17 -17 -17 -17 -18 -18 -18 -18 -18 -18 -18 -19 -19 -19 -20 -20 -21 -21 -21 -22
-8 -8 -8 -9 -9 -9 -9 -9 -9 -10 -11 -11 -11 -11 -11 -11 -11 -12 -12 -12 -14 -16 -17 -17 -17 -17 -17 -18 -18 -18 -18 -18 -18 -18 -18 -19 -19 -19 -19 -20 -20 -21 -21 -22
-8 -8 -8 -9 -9 -9 -9 -9 -9 -10 -11 -11 -11 -11 -11 -11 -11 -11 -12 -12 -14 -16 -16 -17 -17 -17 -17 -17 -18 -18 -18 -18 -18 -18 -18 -18 -19 -19 -19 -20 -20 -21 -21 -22
-8 -9 -9 -9 -9 -9 -9 -9 -9 -9 -10 -11 -11 -11 -11 -11 -11 -12 -12 -12 -13 -15 -16 -17 -17 -17 -17 -17 -18 -18 -18 -18 -18 -18 -19 -19 -19 -19 -20 -20 -20 -21 -21 -22
-9 -9 -9 -9 -9 -9 -9 -9 -9 -9 -9 -10 -11 -11 -11 -11 -12 -12 -12 -12 -12 -13 -16 -16 -17 -17 -17 -17 -17 -18 -18 -18 -18 -19 -19 -19 -19 -19 -19 -20 -20 -20 -21 -22
-9 -9 -9 -9 -9 -9 -9 -9 -9 -9 -9 -10 -10 -11 -11 -11 -11 -12 -12 -12 -12 -12 -14 -16 -16 -17 -16 -17 -17 -17 -17 -18 -18 -18 -19 -19 -19 -19 -19 -20 -20 -20 -21 -21
-9 -9 -9 -9 -9 -9 -9 -9 -9 -9 -9 -10 -10 -11 -11 -11 -11 -12 -12 -12 -12 -12 -13 -14 -16 -16 -16 -16 -16 -17 -17 -17 -18 -18 -18 -18 -18 -19 -19 -19 -20 -20 -20 -20
-9 -9 -9 -9 -9 -9 -9 -9 -9 -9 -10 -10 -10 -10 -11 -11 -11 -11 -11 -11 -11 -12 -12 -13 -15 -17 -16 -16 -16 -16 -17 -17 -17 -17 -18 -18 -18 -18 -19 -19 -19 -20 -20 -20
-9 -9 -9 -9 -9 -9 -9 -9 -9 -9 -9 -10 -10 -10 -11 -11 -11 -11 -11 -12 -11 -12 -12 -13 -14 -15 -16 -17 -17 -17 -17 -17 -17 -17 -17 -18 -18 -18 -18 -19 -19 -19 -19 -20
-9 -9 -9 -9 -9 -9 -9 -9 -9 -9 -9 -9 -10 -10 -10 -11 -11 -11 -11 -11 -12 -11 -12 -12 -13 -13 -15 -16 -17 -17 -17 -17 -17 -17 -18 -18 -18 -18 -18 -18 -19 -19 -19 -20
-9 -9 -9 -9 -9 -9 -9 -9 -9 -9 -9 -9 -9 -10 -10 -11 -11 -11 -11 -11 -11 -11 -12 -12 -12 -12 -13 -14 -16 -16 -17 -17 -17 -17 -17 -18 -18 -18 -18 -19 -19 -19 -19 -20
-9 -9 -9 -9 -9 -9 -9 -9 -9 -9 -9 -9 -9 -10 -10 -10 -11 -11 -11 -11 -11 -11 -11 -12 -12 -12 -12 -13 -14 -14 -15 -16 -17 -17 -17 -18 -18 -18 -19 -19 -19 -19 -19 -20
-9 -9 -9 -9 -9 -8 -9 -9 -9 -9 -9 -9 -9 -10 -10 -10 -10 -11 -11 -11 -11 -11 -11 -11 -12 -12 -12 -12 -13 -13 -14 -14 -15 -16 -17 -17 -18 -18 -19 -19 -19 -19 -20 -20
-10 -10 -9 -9 -9 -8 -9 -9 -9 -9 -9 -9 -9 -10 -10 -10 -10 -11 -11 -11 -11 -11 -12 -12 -12 -12 -12 -12 -13 -13 -13 -13 -14 -15 -15 -16 -16 -17 -17 -18 -18 -19 -19 -20
-10 -10 -10 -9 -9 -9 -9 -9 -9 -9 -9 -9 -9 -9 -10 -10 -10 -10 -11 -11 -11 -11 -12 -12 -12 -12 -12 -12 -13 -13 -13 -13 -14 -14 -15 -15 -15 -16 -17 -17 -17 -18 -18 -19
-11 -11 -10 -10 -9 -8 -9 -9 -9 -9 -9 -9 -9 -10 -10 -10 -10 -10 -11 -11 -11 -11 -12 -12 -12 -12 -12 -12 -12 -12 -13 -13 -14 -14 -14 -15 -15 -16 -16 -16 -16 -17 -17 -18
-11 -11 -10 -10 -9 -9 -9 -9 -9 -9 -9 -9 -9 -9 -10 -10 -10 -10 -11 -11 -11 -12 -12 -12 -12 -12 -12 -12 -12 -12 -12 -13 -13 -14 -14 -14 -15 -15 -15 -16 -16 -16 -16 -17
-11 -11 -11 -11 -10 -10 -9 -9 -9 -9 -9 -9 -9 -9 -10 -10 -10 -10 -11 -11 -11 -11 -12 -12 -12 -12 -12 -13 -13 -13 -13 -13 -13 -13 -14 -14 -14 -15 -15 -15 -16 -16 -16 -16
-11 -12 -11 -11 -10 -10 -10 -10 -10 -9 -9 -9 -9 -9 -9 -10 -10 -10 -10 -11 -11 -11 -11 -12 -12 -12 -12 -13 -13 -13 -13 -13 -13 -13 -13 -13 -14 -14 -14 -15 -15 -16 -16 -16
-12 -12 -11 -10 -11 -11 -10 -10 -10 -10 -10 -9 -9 -9 -9 -10 -10 -10 -10 -11 -11 -11 -11 -12 -12 -12 -12 -12 -13 -13 -13 -13 -13 -13 -13 -13 -14 -14 -14 -15 -15 -15 -16 -16
-12 -12 -12 -11 -12 -11 -11 -10 -10 -10 -10 -10 -10 -10 -10 -10 -10 -10 -10 -11 -11 -11 -11 -11 -12 -12 -12 -12 -13 -13 -13 -13 -13 -13 -14 -14 -14 -14 -14 -15 -15 -15 -15 -16
Height
5864 5864 5861 5858 5856 5853 5849 5844 5838 5833 5829 5826 5822 5817 5812 5806 5799 5790 5780 5767 5753 5741 5732 5726 5722 5717 5714 5711 5707 5702 5697 5692 5687 5682 5675 5667 5660 5652 5644 5634 5624 5611 5595 5580
5864 5862 5860 5858 5856 5852 5848 5842 5837 5831 5827 5824 5820 5815 5810 5805 5797 5788 5777 5763 5749 5736 5730 5725 5719 5716 5713 5709 5704 5699 5694 5689 5684 5679 5673 5665 5657 5648 5639 5629 5616 5602 5588 5573
5862 5861 5859 5857 5854 5851 5846 5840 5834 5830 5826 5822 5818 5814 5809 5803 5795 5786 5773 5759 5745 5733 5728 5722 5717 5715 5711 5706 5701 5696 5692 5687 5682 5676 5669 5660 5650 5641 5633 5624 5613 5599 5582 5566
5861 5859 5858 5856 5853 5850 5845 5839 5833 5828 5825 5821 5816 5813 5807 5801 5794 5783 5770 5756 5743 5733 5726 5720 5717 5714 5709 5704 5699 5695 5690 5685 5680 5674 5666 5658 5649 5641 5631 5621 5608 5593 5578 5562
5860 5858 5857 5856 5852 5849 5845 5839 5833 5827 5823 5819 5815 5812 5806 5800 5792 5781 5768 5754 5741 5731 5725 5720 5716 5712 5707 5703 5699 5694 5688 5683 5678 5672 5664 5656 5647 5637 5627 5616 5604 5591 5576 5562
5858 5857 5856 5854 5851 5848 5844 5839 5833 5827 5822 5818 5813 5810 5806 5799 5791 5779 5767 5753 5740 5731 5725 5720 5716 5712 5707 5702 5698 5694 5688 5682 5677 5670 5663 5655 5646 5636 5626 5615 5603 5590 5577 5563
5856 5855 5855 5853 5851 5847 5844 5839 5834 5828 5821 5817 5812 5809 5804 5797 5789 5778 5766 5753 5739 5730 5725 5720 5716 5711 5706 5702 5698 5693 5688 5682 5676 5669 5663 5655 5646 5635 5625 5614 5602 5590 5577 5564
5853 5854 5853 5852 5850 5847 5843 5838 5832 5826 5820 5816 5811 5807 5803 5796 5789 5778 5766 5754 5740 5731 5725 5720 5716 5711 5706 5702 5698 5693 5688 5682 5677 5670 5663 5655 5646 5636 5625 5614 5602 5591 5578 5567
5851 5851 5851 5850 5848 5846 5842 5838 5834 5827 5822 5816 5811 5808 5802 5796 5788 5778 5767 5756 5743 5733 5726 5721 5716 5711 5707 5703 5699 5693 5689 5683 5678 5670 5663 5655 5646 5637 5627 5616 5605 5593 5581 5569
5848 5848 5848 5847 5846 5844 5841 5837 5833 5827 5821 5816 5810 5806 5801 5795 5788 5779 5769 5759 5748 5736 5727 5721 5716 5712 5708 5704 5700 5696 5691 5685 5678 5671 5664 5656 5648 5639 5629 5619 5608 5597 5586 5574
5843 5845 5846 5845 5844 5842 5839 5836 5831 5827 5821 5815 5809 5805 5800 5795 5788 5781 5772 5763 5751 5741 5729 5722 5718 5714 5709 5705 5701 5697 5691 5685 5678 5671 5665 5658 5649 5641 5631 5622 5611 5601 5590 5579
5839 5840 5841 5841 5840 5839 5836 5834 5830 5826 5822 5815 5809 5806 5799 5795 5789 5782 5775 5766 5755 5744 5733 5724 5719 5715 5712 5707 5702 5698 5692 5686 5680 5673 5667 5660 5652 5643 5634 5625 5616 5606 5595 5585
5834 5836 5836 5837 5838 5836 5834 5832 5828 5824 5820 5815 5810 5805 5798 5794 5789 5784 5777 5769 5760 5749 5738 5729 5721 5716 5712 5708 5704 5699 5694 5688 5682 5676 5670 5662 5653 5645 5637 5629 5620 5611 5601 5592
5827 5830 5831 5833 5832 5832 5830 5829 5826 5823 5819 5815 5810 5804 5798 5794 5790 5785 5779 5771 5763 5754 5743 5734 5726 5718 5713 5709 5704 5699 5693 5688 5684 5678 5671 5664 5655 5648 5640 5632 5623 5616 5606 5596
5822 5824 5825 5826 5827 5827 5827 5826 5824 5821 5818 5814 5810 5803 5798 5793 5789 5785 5780 5774 5766 5758 5748 5739 5730 5722 5715 5709 5704 5700 5695 5690 5685 5680 5673 5666 5659 5650 5644 5636 5628 5618 5609 5600
5816 5818 5819 5820 5822 5822 5823 5822 5821 5818 5816 5812 5808 5803 5797 5792 5788 5784 5780 5775 5768 5761 5753 5745 5736 5727 5719 5711 5706 5701 5696 5690 5686 5681 5675 5667 5661 5653 5646 5638 5630 5622 5613 5603
5808 5812 5813 5815 5815 5817 5819 5817 5817 5815 5813 5810 5806 5803 5797 5791 5787 5783 5780 5775 5770 5763 5756 5748 5741 5733 5724 5716 5708 5702 5697 5690 5685 5681 5676 5669 5663 5655 5649 5640 5632 5625 5616 5608
5801 5804 5806 5809 5809 5811 5814 5812 5812 5811 5809 5807 5804 5801 5796 5791 5786 5782 5779 5775 5770 5764 5757 5751 5744 5737 5730 5722 5714 5706 5699 5693 5688 5682 5676 5670 5664 5658 5651 5644 5636 5628 5619 5611
5792 5796 5799 5801 5803 5806 5807 5807 5807 5806 5805 5803 5801 5798 5794 5790 5785 5781 5777 5774 5770 5765 5759 5753 5747 5740 5733 5726 5718 5711 5704 5698 5691 5686 5679 5673 5667 5660 5652 5645 5639 5631 5623 5615
5784 5787 5792 5795 5796 5798 5801 5801 5801 5801 5801 5799 5797 5795 5792 5788 5784 5780 5775 5772 5769 5764 5759 5754 5748 5741 5735 5729 5722 5716 5709 5702 5696 5690 5684 5676 5670 5663 5656 5649 5642 5635 5627 5620
5774 5778 5783 5785 5788 5793 5795 5794 5795 5796 5798 5794 5793 5791 5789 5786 5783 5778 5774 5770 5767 5763 5759 5754 5749 5743 5737 5731 5725 5719 5712 5706 5700 5694 5687 5680 5673 5667 5660 5653 5646 5639 5631 5624
5766 5768 5774 5776 5782 5787 5787 5788 5789 5790 5789 5788 5788 5786 5785 5782 5780 5776 5772 5768 5764 5761 5757 5754 5749 5743 5738 5732 5726 5721 5715 5709 5702 5696 5690 5684 5677 5670 5663 5656 5649 5642 5635 5627
5754 5760 5766 5769 5775 5778 5779 5781 5782 5782 5782 5782 5782 5781 5780 5778 5776 5774 5771 5766 5762 5758 5755 5752 5748 5743 5738 5733 5727 5722 5716 5710 5704 5698 5692 5686 5680 5673 5667 5659 5653 5645 5637 5630
5742 5748 5752 5759 5766 5769 5772 5773 5774 5775 5776 5776 5775 5775 5775 5774 5772 5770 5768 5764 5760 5756 5752 5749 5746 5742 5738 5733 5728 5723 5717 5712 5706 5700 5694 5688 5682 5675 5668 5661 5654 5647 5639 5632
5730 5735 5742 5749 5757 5758 5761 5763 5766 5768 5769 5769 5769 5769 5769 5768 5767 5766 5764 5761 5757 5753 5750 5747 5743 5740 5736 5732 5728 5723 5718 5712 5707 5701 5696 5689 5682 5676 5669 5663 5656 5649 5641 5633
5719 5726 5732 5741 5746 5742 5749 5754 5757 5760 5761 5762 5762 5762 5762 5762 5761 5760 5759 5757 5754 5750 5747 5744 5741 5737 5734 5730 5726 5722 5717 5711 5706 5701 5696 5689 5683 5676 5670 5664 5657 5650 5643 5635
Wind_Speed
7 8 11 14 14 16 20 21 21 19 17 18 20 22 24 31 37 43 47 53 55 51 25 25 26 17 16 20 24 27 24 23 27 29 32 37 40 38 37 42 50 56 57 54
6 7 11 10 13 17 22 23 22 19 18 19 19 20 25 31 38 41 48 52 56 38 25 27 22 16 20 25 27 26 23 27 26 29 32 37 39 37 35 42 51 57 56 48
5 7 8 9 13 19 24 25 24 19 18 19 17 19 25 30 37 43 47 51 55 28 29 28 17 17 23 26 26 22 25 27 25 30 33 38 41 38 38 45 50 53 56 42
4 6 5 9 14 20 25 26 25 20 19 20 17 19 24 30 36 45 47 51 50 25 30 23 17 21 25 26 22 22 27 26 26 29 34 37 39 37 36 44 51 52 54 41
3 3 4 9 15 20 23 26 26 20 19 21 18 18 25 32 36 44 47 51 50 27 29 19 19 24 26 24 20 25 27 25 26 31 34 38 41 40 40 45 49 50 51 47
3 2 3 8 13 18 23 26 26 21 19 22 18 21 27 31 38 43 47 51 50 28 26 19 22 25 25 21 20 26 27 25 27 30 35 38 40 41 41 43 46 49 49 47
5 3 2 6 10 15 22 26 29 26 20 23 19 20 27 31 37 42 47 50 51 30 24 21 23 26 25 20 21 26 27 26 28 30 32 37 41 41 41 43 45 47 47 46
7 5 2 4 8 13 19 24 29 29 24 23 22 21 25 31 36 43 48 49 50 32 25 21 25 26 25 20 21 25 26 27 29 31 33 36 38 42 43 44 45 46 47 46
9 7 5 3 5 11 15 21 26 30 27 22 23 20 23 29 35 43 45 47 46 40 27 22 25 26 24 21 22 25 25 27 29 32 35 37 39 40 44 46 46 46 47 47
12 10 8 4 2 7 13 18 22 27 31 27 23 19 22 28 33 40 42 45 44 44 31 22 25 26 24 22 22 24 26 28 29 31 34 37 39 40 41 44 45 46 48 49
15 13 12 8 4 4 10 15 19 24 28 29 26 22 21 26 31 36 40 44 46 45 38 25 24 25 23 21 22 23 26 28 31 32 34 36 38 39 41 42 43 44 47 49
17 16 15 11 8 4 7 12 16 21 25 28 27 23 20 24 29 33 39 44 48 50 44 37 25 23 23 22 22 23 26 28 31 34 35 35 36 37 39 40 41 43 47 48
20 19 18 16 12 8 7 10 14 17 22 27 29 26 20 21 25 30 38 41 46 48 44 40 33 23 21 21 21 22 24 27 30 33 36 37 36 36 37 38 40 42 45 48
23 21 21 19 15 13 10 10 12 15 19 23 27 26 22 18 21 27 33 37 42 46 45 45 41 32 23 20 20 20 22 25 28 30 33 35 38 39 39 38 37 40 43 45
26 23 24 23 20 17 14 12 12 14 16 19 24 25 23 19 19 23 28 33 38 43 44 45 46 42 31 23 20 20 22 24 26 28 31 33 36 37 40 42 43 41 42 43
30 25 26 25 23 21 17 16 15 14 15 16 20 23 21 20 16 19 23 28 33 39 39 40 42 45 44 36 26 22 21 22 24 27 29 31 33 35 37 39 41 42 44 43
33 28 27 26 26 23 19 19 17 16 15 14 17 20 21 20 17 15 19 23 28 34 38 36 37 40 43 41 37 32 28 22 24 26 28 30 33 35 38 39 41 43 44 44
35 31 29 27 27 25 19 19 19 17 15 14 14 17 19 19 18 12 15 19 24 29 32 34 34 35 37 37 38 36 35 33 29 27 27 29 33 35 38 40 42 43 43 44
37 33 31 29 28 25 23 20 19 17 17 14 14 15 16 18 18 15 12 15 19 24 27 29 31 32 33 35 34 35 34 34 32 32 31 33 35 36 39 39 41 43 43 43
40 36 34 30 29 27 22 22 19 17 18 16 14 14 15 17 17 16 13 14 16 19 23 25 27 28 29 31 31 31 32 32 32 32 34 33 36 38 39 40 42 44 45 46
45 40 35 33 31 27 21 23 21 19 18 18 15 13 15 15 16 15 15 13 14 16 18 21 23 24 25 27 30 31 30 30 31 31 32 33 34 36 39 41 43 45 47 48
46 44 39 37 33 27 26 24 22 20 19 19 18 15 14 15 16 16 14 15 15 14 15 18 20 21 22 22 25 27 30 29 29 29 31 32 33 34 36 39 41 42 45 47
50 46 42 39 32 31 28 28 25 23 20 20 19 18 16 15 16 16 15 14 16 15 14 15 17 19 20 20 20 23 25 27 27 27 27 30 31 32 33 34 36 39 43 45
51 48 49 44 37 34 30 29 27 25 23 21 21 20 18 17 16 16 16 15 15 16 16 16 16 17 19 20 20 20 20 23 25 25 26 26 29 29 30 31 33 35 40 44
52 53 51 48 39 37 36 33 30 26 26 24 22 21 20 19 18 17 16 16 16 16 18 18 17 18 18 19 20 21 21 21 23 24 24 25 27 28 29 29 31 34 38 41
53 51 50 47 40 47 39 38 32 28 28 27 25 23 22 21 21 19 18 18 17 17 17 19 20 19 20 21 20 21 21 20 21 23 24 24 26 28 28 30 33 36 38 40
Wind_Direction
332 350 354 356 5 15 10 357 351 349 347 346 349 347 351 352 348 345 348 339 335 340 337 336 332 337 342 338 337 338 341 341 340 341 342 343 343 342 341 340 338 339 335 332
338 355 357 6 17 18 13 4 356 353 351 352 354 351 357 354 350 352 349 342 341 343 342 337 337 345 345 342 343 343 345 344 343 344 345 345 344 343 341 339 340 342 341 337
344 357 360 13 18 18 14 5 359 356 355 355 358 354 0 352 352 355 354 345 346 347 347 345 351 349 347 346 347 349 349 347 347 349 349 350 349 346 341 340 343 345 348 344
334 352 5 15 18 19 17 7 1 358 356 357 358 1 359 353 353 356 355 348 350 349 353 353 359 353 352 351 353 354 353 352 353 355 355 354 352 348 342 342 346 351 356 352
303 339 10 11 17 21 18 11 5 1 357 357 356 358 356 355 355 358 358 352 351 352 357 2 360 356 356 356 358 358 359 358 360 1 0 360 0 357 351 348 351 357 360 0
267 289 349 8 15 21 22 17 9 5 357 358 358 354 358 1 360 1 0 357 353 357 0 7 1 359 359 0 2 1 3 3 3 1 3 4 5 3 0 357 357 357 3 4
249 252 300 2 13 20 22 21 16 12 2 359 356 359 2 6 5 4 4 2 356 1 3 7 3 2 3 5 6 7 6 6 6 2 3 3 7 5 3 3 2 2 5 8
236 241 264 345 12 21 23 20 17 12 6 358 358 1 4 8 9 8 8 7 358 3 3 7 6 5 6 11 10 9 7 8 8 6 3 1 4 8 7 7 7 8 10 11
234 227 234 316 9 21 21 22 19 19 10 1 359 0 3 8 10 12 12 13 5 3 2 6 8 8 11 15 12 11 8 9 8 8 7 6 7 7 9 11 12 13 14 16
237 230 229 261 328 18 19 16 17 16 13 6 358 357 6 11 12 16 16 16 14 7 7 7 9 12 17 19 14 12 10 11 10 9 9 9 9 11 11 13 18 21 21 19
238 231 234 242 251 348 9 10 14 14 13 5 3 358 3 10 12 19 17 12 14 17 9 10 10 14 19 21 20 18 14 15 12 13 10 10 12 13 15 16 21 22 21 22
238 228 229 236 238 278 347 358 4 10 12 10 1 1 358 7 10 15 17 15 10 16 17 10 11 12 17 18 17 18 15 15 14 15 14 12 13 15 16 18 19 20 21 21
238 231 232 234 241 252 304 338 351 2 9 8 5 3 358 3 9 12 14 16 15 17 21 19 13 12 12 14 13 12 12 13 16 16 17 17 15 14 16 17 17 19 20 21
236 234 234 235 243 250 276 310 334 348 1 5 6 2 4 2 5 9 13 15 18 18 21 26 32 21 12 8 9 9 8 10 14 16 17 17 19 18 17 15 15 17 18 18
238 232 235 239 241 249 264 286 313 331 347 360 3 3 4 6 360 6 12 13 19 20 23 27 35 39 30 18 8 5 3 4 8 12 13 12 17 16 19 20 20 17 17 16
242 235 234 238 243 247 257 275 295 313 328 347 358 3 7 9 4 3 9 13 16 23 26 28 30 36 40 41 30 16 7 1 1 4 8 6 9 11 16 17 18 19 22 21
239 241 237 236 243 249 251 265 280 295 309 329 346 359 6 9 11 5 6 11 14 21 25 28 27 26 32 39 42 41 32 13 8 4 6 2 3 8 12 14 14 15 16 18
237 239 241 238 241 247 252 256 270 283 293 310 330 346 1 6 9 6 3 6 10 14 23 26 28 26 31 35 37 39 43 41 36 26 16 11 8 10 11 12 13 14 14 15
237 238 242 243 241 247 251 257 264 274 282 292 311 332 352 1 8 6 354 357 4 8 14 25 27 27 30 32 35 38 37 37 35 32 29 26 22 21 22 20 20 18 18 17
237 237 240 243 244 244 246 255 260 270 274 281 295 315 334 353 1 5 356 346 352 1 6 13 24 26 28 28 29 29 30 34 32 30 31 27 26 23 24 22 22 20 20 19
235 235 235 242 244 242 243 250 255 262 269 275 281 295 316 335 349 360 2 349 341 347 359 3 9 21 26 27 26 25 26 28 30 28 26 24 23 21 20 20 19 19 19 20
236 236 233 235 242 244 242 245 248 257 263 268 275 281 297 316 332 345 353 358 345 334 344 353 357 6 15 20 19 19 23 23 23 24 24 22 20 20 17 15 16 17 16 14
234 237 235 235 235 243 241 243 246 249 254 261 269 273 280 297 314 330 339 348 350 334 327 336 345 350 356 6 11 13 13 17 19 19 19 19 16 16 15 12 11 10 9 10
233 233 233 232 229 238 243 243 243 245 250 255 263 271 272 282 298 312 326 337 345 341 327 320 326 335 342 347 354 3 4 5 9 12 14 12 13 11 9 6 5 5 3 3
230 232 230 231 227 234 239 240 243 244 247 251 258 265 269 272 282 296 309 322 335 338 337 325 315 318 324 333 339 345 355 355 359 2 8 6 2 1 0 359 358 358 358 359
230 233 234 231 227 232 231 238 238 242 246 251 254 259 265 269 272 282 294 305 318 329 335 333 325 315 314 316 325 332 338 346 350 352 354 354 354 352 352 352 353 353 354 356